Wetbulb
56.57 55.21 56.19 57.93 57.71 57.62 57.58 57.33 56.43 56.26 58.51 58.42 60.17 61.32 62.88 66.83 66.70 67.15 67.65 67.69 67.76 68.00 69.97 70.31 70.87 72.06 73.03 73.75 74.32 75.00 75.26 75.83 75.69 75.17 75.24 75.22 75.25 76.06 76.64 77.18 78.21 78.63 78.11 78.51
53.44 52.63 57.78 56.30 55.56 55.58 56.77 56.52 57.10 56.23 57.32 60.20 60.15 60.13 61.83 65.02 66.30 67.13 67.51 67.70 68.06 68.57 69.26 69.54 69.91 71.17 71.82 72.99 74.05 74.98 75.51 76.33 76.61 76.06 76.04 76.02 76.16 76.42 76.84 78.85 77.82 78.37 78.36 78.16
51.85 53.45 54.53 53.85 54.59 54.31 56.40 56.56 56.34 54.65 54.97 58.99 58.47 57.66 60.55 64.36 66.20 67.19 67.96 68.78 69.04 68.85 68.72 68.97 69.27 70.07 71.44 72.51 73.73 74.47 75.62 76.23 76.96 77.15 76.44 76.81 77.09 77.16 76.43 76.50 75.37 77.94 78.19 77.79
52.40 54.20 52.49 52.66 52.33 54.51 52.39 57.27 55.77 55.06 53.26 51.37 57.17 50.47 57.19 61.54 62.83 65.28 66.64 67.70 68.46 69.24 69.84 69.53 69.52 69.71 70.59 72.16 74.15 74.89 75.75 76.18 77.03 77.72 77.79 77.60 74.85 74.21 75.08 77.83 75.96 76.56 77.77 78.01
51.26 51.64 51.67 51.26 51.93 53.75 52.39 55.73 55.26 55.27 54.24 53.05 55.92 52.61 56.46 58.16 57.63 59.33 63.65 66.96 68.50 69.66 69.81 69.67 69.76 70.38 71.16 72.28 73.49 74.69 75.71 76.43 77.00 77.03 78.12 76.02 75.79 75.23 76.05 76.27 77.36 77.21 77.17 78.12
53.02 54.73 53.34 53.45 54.93 54.92 54.43 53.14 53.97 54.62 53.92 49.20 52.56 51.72 52.63 54.98 56.88 58.27 61.75 65.02 68.12 69.27 70.18 70.44 70.92 71.16 71.40 72.45 73.27 74.39 75.05 75.94 76.94 76.87 76.73 77.00 76.59 76.14 75.47 76.07 76.80 75.28 75.83 77.14
51.54 52.14 54.06 55.80 55.08 55.52 54.27 52.17 47.83 47.48 48.47 48.35 52.52 50.68 52.78 56.23 58.43 61.00 61.66 64.13 67.94 69.57 70.21 70.38 70.43 70.58 71.68 72.06 72.76 73.55 74.67 75.64 76.46 76.55 76.49 76.66 76.91 77.07 76.76 76.91 75.52 75.92 74.89 75.02
49.64 48.26 53.73 56.53 55.37 53.76 52.74 52.41 48.21 44.55 45.50 47.83 51.91 48.60 53.51 56.78 61.79 64.70 64.07 67.54 67.42 69.34 70.27 70.75 71.14 71.29 71.55 72.31 72.97 73.67 74.60 75.64 75.94 76.31 76.58 77.34 77.49 76.39 76.34 77.00 76.01 75.71 75.56 75.79
51.68 50.07 55.81 55.95 56.48 55.72 53.53 51.08 52.58 49.08 49.94 47.44 49.44 51.49 54.94 58.21 62.45 64.97 66.32 67.59 67.37 69.02 69.88 70.51 71.50 71.81 72.41 72.65 73.26 73.80 75.80 76.07 76.49 75.98 76.64 76.84 77.14 77.10 76.80 78.50 77.57 76.53 76.88 76.37
54.70 50.75 54.78 55.21 55.93 56.17 54.44 54.25 49.48 49.82 44.97 44.08 47.57 49.07 50.94 57.70 61.50 65.29 66.46 67.15 68.06 69.17 70.14 70.82 71.61 72.36 72.93 73.20 73.75 74.21 75.04 75.45 76.14 75.97 76.31 76.37 76.71 77.35 77.45 77.60 77.41 77.57 77.53 77.89
56.08 53.85 53.29 55.37 53.19 51.89 52.56 52.60 52.94 51.21 49.77 45.76 45.24 49.64 57.85 60.08 63.29 65.63 66.80 67.94 68.55 69.26 70.07 70.91 71.65 72.65 73.19 73.28 73.73 73.90 74.65 75.13 75.44 75.82 76.18 76.46 76.38 76.93 77.41 77.00 77.56 77.85 78.20 78.29
56.25 54.07 50.95 51.84 53.94 54.48 53.50 52.30 53.35 49.71 49.34 50.20 49.06 49.18 61.22 63.02 64.95 66.90 67.72 68.96 68.95 70.78 70.40 70.28 71.66 72.15 72.41 72.74 73.71 74.04 74.42 74.63 75.21 75.75 76.09 76.05 76.66 77.02 76.78 77.06 77.03 77.95 77.88 78.89
56.94 53.09 49.00 50.85 51.96 54.17 52.26 53.37 53.19 53.09 53.13 50.27 48.28 51.36 58.42 63.60 65.18 67.65 67.97 68.66 69.28 70.55 70.07 70.10 70.62 71.33 72.37 72.86 73.81 74.14 74.62 74.85 75.27 75.29 75.29 75.71 76.16 76.41 76.44 76.93 77.30 77.59 78.02 78.36
58.58 53.89 51.43 48.38 51.24 52.95 50.82 51.88 53.05 52.42 49.62 50.55 51.54 52.48 56.33 59.11 63.15 65.85 66.81 67.75 68.96 70.46 71.57 71.43 71.15 72.21 72.86 73.23 73.92 74.70 74.49 75.06 75.35 75.33 75.49 75.78 75.95 76.62 76.64 77.10 77.95 77.49 78.81 78.63
54.51 51.26 53.11 53.17 53.04 52.71 51.60 50.99 51.62 50.99 51.99 50.20 51.90 52.62 55.98 57.59 62.25 65.15 65.76 66.33 67.83 68.30 70.88 72.37 71.92 71.82 72.84 73.39 73.74 74.34 74.67 75.60 75.93 75.90 75.47 75.86 77.19 77.63 77.95 77.82 78.43 77.86 78.59 78.67
54.26 51.01 51.69 49.92 51.23 50.66 48.63 49.99 50.74 51.33 51.16 51.54 52.50 52.68 57.64 60.40 65.70 66.71 65.75 65.66 65.48 66.75 68.23 71.06 73.18 73.76 73.51 71.78 68.20 69.47 69.21 73.30 76.71 76.71 76.32 77.22 77.47 77.70 77.72 78.25 78.13 78.97 78.00 78.36
52.89 51.53 50.78 48.09 50.63 48.62 45.87 49.36 49.87 50.31 51.43 51.05 49.39 53.19 58.99 59.66 63.53 66.91 67.61 65.95 65.60 66.90 67.73 68.88 70.51 71.61 71.73 72.14 70.96 66.83 67.21 70.19 75.60 76.71 77.30 77.33 77.67 77.63 78.03 78.17 78.05 78.25 77.89 78.72
51.98 51.85 51.08 48.16 49.20 42.33 49.99 52.85 51.73 50.95 51.86 52.88 53.20 55.71 61.11 63.85 66.31 68.35 69.09 67.82 66.56 67.83 68.15 68.60 69.39 69.34 69.74 70.12 72.25 74.43 75.29 76.82 76.83 77.25 77.68 78.19 79.01 78.64 78.53 77.51 77.21 77.37 77.59 77.83
53.72 51.99 48.91 46.34 46.63 48.88 50.12 51.53 52.23 51.22 53.75 54.68 57.57 59.17 62.21 65.35 66.05 67.24 68.96 68.07 67.32 68.65 69.75 70.20 70.96 71.39 71.77 71.27 72.56 73.12 72.76 73.49 73.24 73.28 74.20 75.43 77.35 78.59 78.84 77.66 77.80 77.18 76.82 77.36
51.26 52.94 50.14 49.19 44.76 44.04 51.88 55.10 57.76 58.18 51.25 60.90 60.75 60.12 61.88 64.01 58.98 63.01 67.17 67.87 68.25 69.26 70.27 70.80 71.73 72.09 71.46 71.54 71.76 72.16 72.38 72.90 72.65 73.08 73.65 74.84 75.71 75.95 76.52 78.45 78.10 79.25 78.46 77.23
50.31 50.70 48.40 49.20 47.29 49.94 54.40 55.77 58.67 50.48 53.45 60.53 61.85 63.03 63.74 63.13 64.30 66.55 66.75 67.34 69.40 70.96 71.23 72.56 73.50 72.01 70.30 71.68 71.89 70.76 71.31 71.37 73.63 74.19 74.41 74.95 75.40 75.57 75.66 77.21 79.06 79.21 78.67 77.77
50.88 49.84 48.85 49.49 47.25 45.30 56.75 55.75 52.82 56.55 58.88 59.19 59.98 61.85 61.61 62.88 63.03 63.77 65.79 66.79 67.32 69.20 71.68 72.61 72.47 72.30 70.69 69.90 69.67 69.13 69.77 72.25 73.06 73.40 74.05 74.50 74.79 74.29 73.62 75.38 76.37 77.94 77.97 75.24
49.06 52.74 51.88 51.49 52.86 56.47 57.68 57.09 58.20 58.28 58.02 58.16 58.45 58.73 59.18 58.70 60.34 61.42 61.80 62.94 65.27 67.41 68.50 68.08 67.71 69.26 69.09 69.06 68.98 67.39 69.29 69.40 69.96 71.06 71.91 73.15 74.26 74.41 74.66 74.26 74.08 72.65 73.19 72.79
54.39 54.91 52.19 52.90 55.39 55.80 56.89 58.56 58.92 59.31 58.58 58.68 59.09 58.79 59.12 58.71 59.11 59.55 60.01 60.54 61.27 62.43 63.86 65.48 64.98 64.58 65.38 66.07 65.90 66.72 66.95 67.46 67.16 68.16 70.31 71.38 72.27 72.06 73.32 73.29 72.73 72.27 70.62 69.94
54.80 54.95 53.72 54.07 56.55 57.22 57.74 57.60 58.69 58.44 58.58 58.15 58.80 58.80 58.60 58.94 58.97 59.58 59.53 60.51 60.85 61.49 61.93 62.60 62.91 63.61 64.37 64.87 65.36 66.00 66.94 67.09 66.04 66.36 66.32 68.12 69.42 70.29 70.73 72.23 71.68 71.60 71.94 69.19
56.31 54.63 52.84 52.24 57.20 56.83 56.97 58.99 59.03 57.53 57.22 57.98 58.06 58.07 58.99 59.25 59.04 59.71 59.74 60.26 60.69 60.61 61.33 61.69 62.40 63.36 63.93 64.67 65.04 66.58 67.53 67.36 66.90 65.19 63.35 62.12 63.29 66.99 69.42 69.30 70.22 59.07 57.74 54.58
MSLP
1003.71 1002.97 1001.71 1000.98 1001.50 1001.80 1001.40 1000.80 1000.13 999.99 1000.52 1000.68 1000.25 1000.37 1000.51 1001.64 1002.43 1002.81 1003.57 1004.45 1005.19 1005.82 1006.68 1007.56 1008.44 1009.21 1009.92 1010.59 1011.39 1012.22 1012.94 1013.61 1014.36 1014.74 1014.87 1014.93 1014.98 1015.31 1015.39 1015.48 1015.98 1016.32 1016.48 1016.89
1003.35 1002.11 1001.55 1001.87 1002.05 1001.78 1001.22 1000.62 999.80 999.85 1000.13 1000.47 999.65 999.56 999.38 1000.13 1001.67 1002.19 1002.84 1003.56 1004.38 1005.16 1005.97 1006.97 1007.83 1008.37 1009.20 1010.01 1010.87 1011.71 1012.50 1013.25 1013.91 1013.93 1014.26 1014.41 1014.61 1014.62 1014.81 1015.32 1015.76 1016.19 1016.35 1016.54
1002.38 1001.65 1002.25 1002.11 1001.60 1001.41 1000.70 999.99 999.96 999.99 999.84 999.48 999.47 998.34 999.02 1000.04 1001.04 1001.66 1002.45 1002.89 1003.55 1004.28 1004.99 1006.19 1006.99 1007.66 1008.39 1009.32 1010.22 1011.00 1011.89 1012.57 1013.29 1013.50 1014.00 1014.46 1014.73 1014.85 1014.86 1015.24 1015.94 1015.81 1016.19 1016.39
1002.34 1002.03 1002.24 1001.77 1001.36 1001.02 1000.22 999.94 1000.20 1000.04 999.57 998.70 999.88 998.54 998.05 999.66 1000.36 1001.33 1001.74 1002.34 1002.65 1003.46 1004.37 1005.12 1006.15 1006.93 1007.54 1008.42 1009.61 1010.36 1011.31 1012.06 1012.67 1013.34 1013.38 1013.83 1013.88 1013.81 1013.95 1015.00 1015.03 1015.64 1015.92 1016.00
1001.76 1002.00 1001.93 1001.53 1001.03 1001.06 1000.41 1000.70 1000.47 1000.20 999.55 998.90 998.83 998.57 997.37 998.46 999.59 1000.07 1000.36 1001.27 1001.90 1002.55 1003.54 1004.10 1004.98 1005.85 1006.62 1007.62 1008.58 1009.62 1010.64 1011.48 1012.01 1012.80 1013.10 1013.43 1013.69 1013.29 1013.50 1013.87 1014.73 1015.50 1015.73 1015.71
1002.14 1002.41 1002.29 1001.59 1001.51 1001.33 1001.20 1000.93 1000.54 1000.08 999.48 998.51 997.92 998.38 997.32 997.94 999.38 999.68 999.99 1000.30 1000.89 1001.39 1002.69 1003.35 1004.23 1005.05 1005.84 1006.75 1007.77 1008.81 1009.86 1010.74 1011.54 1012.13 1012.77 1012.96 1013.02 1013.22 1013.10 1013.67 1014.34 1014.50 1015.14 1015.44
1001.74 1001.64 1001.83 1002.07 1000.84 1000.90 1000.88 999.87 999.10 998.79 998.30 997.56 997.85 998.11 997.47 998.06 999.12 999.44 999.73 999.82 999.96 1000.68 1001.55 1002.65 1003.28 1004.02 1005.12 1005.81 1006.78 1007.79 1008.98 1010.01 1010.85 1011.48 1012.04 1012.48 1012.80 1013.05 1013.12 1013.40 1013.52 1013.61 1014.07 1014.41
1000.82 1001.26 1001.51 1001.77 1001.52 1001.11 1000.66 1000.22 999.28 998.47 998.08 997.57 998.16 997.93 997.48 998.84 999.09 999.57 999.68 999.43 999.55 1000.09 1000.74 1001.95 1002.68 1003.54 1004.24 1005.04 1005.98 1007.02 1008.07 1009.14 1010.05 1010.73 1011.24 1011.82 1012.32 1012.47 1012.72 1013.05 1012.84 1013.19 1013.36 1013.70
1001.27 1001.18 1001.98 1002.09 1002.00 1001.96 1000.66 1000.52 1000.44 999.65 998.95 998.86 998.07 997.99 998.05 998.67 999.31 999.84 999.91 999.77 999.88 1000.17 1000.55 1001.35 1002.09 1002.87 1003.60 1004.45 1005.11 1006.12 1007.34 1008.39 1009.15 1009.69 1010.48 1010.95 1011.50 1011.84 1011.73 1012.10 1012.80 1012.87 1013.14 1013.16
1002.21 1001.49 1001.72 1001.90 1002.37 1002.09 1001.72 1001.48 1000.49 999.68 999.05 998.53 997.85 998.41 998.16 999.25 999.92 1000.14 1000.26 1000.55 1000.54 1000.49 1000.69 1000.99 1001.57 1002.38 1003.19 1003.86 1004.79 1005.78 1006.69 1007.43 1008.08 1008.62 1009.38 1009.84 1010.40 1011.11 1011.45 1011.80 1012.21 1012.38 1012.72 1013.25
1002.88 1002.30 1001.74 1001.89 1001.56 1001.81 1001.67 1001.11 1000.82 1000.49 999.92 998.84 998.27 998.14 999.38 1000.36 1000.86 1000.91 1000.91 1001.12 1001.25 1001.07 1000.82 1000.95 1001.28 1002.00 1002.91 1003.63 1004.50 1005.47 1006.45 1007.19 1007.73 1008.09 1008.40 1008.97 1009.40 1010.03 1010.85 1011.10 1011.56 1011.99 1012.40 1012.85
1003.99 1003.06 1001.94 1001.84 1002.54 1003.21 1002.69 1001.93 1001.52 1000.38 999.70 999.64 999.61 999.28 1000.62 1001.14 1001.35 1001.74 1001.68 1001.78 1002.04 1001.94 1001.04 1000.83 1001.09 1001.72 1002.50 1003.64 1004.17 1004.74 1005.60 1006.24 1006.67 1007.17 1007.79 1008.22 1008.90 1009.40 1009.93 1010.49 1010.95 1011.56 1011.90 1012.42
1004.10 1003.26 1002.42 1001.53 1002.35 1002.86 1002.47 1002.21 1002.04 1001.42 1000.65 999.97 999.77 999.42 1001.04 1001.27 1001.80 1002.24 1002.20 1002.13 1002.12 1001.49 1001.19 1001.23 1001.36 1001.77 1002.71 1003.59 1004.30 1005.01 1005.57 1006.00 1006.42 1006.86 1007.14 1007.59 1008.02 1008.55 1008.96 1009.56 1010.17 1010.60 1011.28 1011.72
1005.49 1003.79 1003.29 1002.54 1002.44 1002.98 1002.58 1002.21 1002.04 1001.79 1000.72 999.84 999.80 999.51 1000.14 1001.06 1001.91 1002.58 1002.86 1002.85 1002.71 1002.39 1001.99 1001.99 1002.28 1002.86 1003.40 1003.89 1004.86 1005.68 1005.96 1006.23 1006.55 1006.75 1006.92 1007.16 1007.50 1007.70 1008.15 1008.71 1009.37 1009.79 1010.32 1010.95
1005.33 1004.05 1003.71 1003.65 1003.52 1003.40 1003.10 1002.67 1002.26 1001.82 1001.43 1000.77 1000.13 1000.03 1000.41 1001.22 1002.11 1002.92 1003.49 1003.48 1003.32 1003.44 1002.82 1002.46 1002.83 1003.45 1003.88 1004.67 1005.44 1005.56 1005.86 1006.48 1006.70 1006.68 1006.95 1007.04 1007.31 1007.68 1008.16 1008.49 1008.71 1009.16 1009.57 1010.04
1005.22 1004.69 1004.60 1004.15 1003.75 1003.26 1002.65 1002.39 1001.98 1001.70 1001.42 1001.04 1000.80 1000.51 1000.75 1001.55 1002.50 1003.05 1003.48 1003.69 1003.62 1003.43 1003.46 1003.25 1003.77 1003.66 1004.04 1005.19 1005.63 1005.52 1004.30 1004.84 1006.78 1007.17 1006.56 1006.36 1006.72 1007.30 1007.62 1007.88 1008.28 1008.68 1009.13 1009.56
1005.36 1005.08 1004.69 1003.88 1003.46 1003.40 1002.43 1001.36 1001.27 1001.06 1000.89 1000.78 1000.48 1000.41 1000.63 1001.19 1001.97 1002.47 1003.14 1003.69 1003.78 1003.98 1003.79 1003.64 1003.72 1003.74 1003.84 1004.55 1005.74 1005.90 1005.81 1008.00 1007.35 1008.55 1007.43 1006.70 1006.20 1006.89 1007.14 1007.35 1007.58 1007.92 1008.34 1008.61
1005.71 1005.67 1005.40 1004.47 1004.10 1002.88 1001.22 1001.76 1001.78 1001.33 1000.83 1000.78 1000.73 1000.71 1001.14 1001.37 1001.54 1002.05 1002.74 1003.23 1003.77 1004.11 1004.22 1004.15 1003.89 1003.99 1004.21 1004.59 1005.62 1006.64 1007.30 1008.35 1008.58 1007.43 1007.11 1006.53 1005.17 1006.16 1006.76 1006.77 1006.89 1007.26 1007.53 1007.68
1006.20 1005.81 1005.18 1004.57 1003.34 1002.30 1001.61 1002.11 1001.92 1001.63 1000.91 1000.76 1000.78 1000.96 1001.42 1001.71 1001.96 1002.05 1002.67 1003.27 1003.57 1003.96 1004.17 1004.21 1004.23 1004.60 1005.01 1005.42 1006.18 1006.31 1006.40 1006.42 1006.14 1006.07 1005.90 1005.86 1006.01 1005.99 1006.02 1005.84 1006.15 1006.46 1006.79 1006.96
1006.24 1006.11 1005.65 1004.43 1003.75 1002.32 1002.40 1002.75 1003.04 1002.70 1001.73 1001.85 1001.65 1001.51 1001.73 1002.29 1001.71 1001.71 1002.55 1003.10 1003.39 1003.77 1004.09 1004.28 1004.43 1004.66 1005.07 1005.56 1005.89 1006.27 1006.63 1006.81 1006.62 1006.42 1006.28 1006.30 1006.06 1005.79 1005.46 1005.49 1005.62 1005.70 1006.11 1006.31
1005.88 1005.81 1005.23 1004.35 1003.92 1002.97 1003.28 1003.60 1003.54 1003.07 1003.44 1003.28 1003.08 1002.77 1002.65 1002.50 1002.16 1002.88 1003.14 1003.28 1003.62 1003.61 1003.89 1004.35 1004.62 1004.56 1004.99 1005.47 1005.63 1005.69 1006.02 1006.14 1006.38 1006.48 1006.30 1006.10 1005.78 1005.50 1005.16 1005.16 1005.27 1005.36 1005.51 1005.81
1005.36 1005.14 1004.63 1004.47 1004.03 1003.79 1004.17 1004.15 1004.08 1004.51 1004.15 1004.18 1004.01 1003.86 1003.91 1003.82 1003.82 1003.59 1003.53 1003.60 1003.69 1003.82 1004.03 1004.44 1004.39 1004.43 1004.87 1005.34 1005.56 1005.64 1005.79 1006.06 1006.24 1006.16 1006.02 1005.89 1005.69 1005.27 1005.15 1005.32 1005.28 1005.36 1005.45 1005.75
1005.82 1005.47 1005.20 1004.97 1004.04 1004.64 1004.76 1004.81 1005.16 1005.12 1005.09 1004.93 1004.83 1004.61 1004.46 1004.34 1004.13 1004.17 1004.35 1003.95 1004.11 1004.08 1004.28 1004.33 1004.36 1004.48 1004.94 1005.29 1005.60 1005.68 1005.92 1006.11 1006.09 1005.97 1005.82 1005.72 1005.81 1005.71 1005.56 1005.29 1005.01 1005.27 1005.49 1005.54
1005.84 1006.56 1005.92 1005.76 1004.67 1004.92 1005.14 1005.27 1005.37 1005.41 1005.53 1005.64 1005.47 1005.12 1004.83 1004.57 1004.38 1004.14 1004.05 1003.94 1003.91 1004.01 1004.18 1004.36 1004.63 1004.70 1004.79 1005.51 1005.68 1005.64 1005.76 1005.96 1006.00 1005.87 1005.70 1005.39 1005.16 1004.90 1004.91 1004.85 1005.11 1005.37 1005.51 1005.57
1006.00 1006.82 1006.16 1005.74 1005.46 1005.48 1005.53 1005.74 1005.87 1006.05 1006.05 1005.82 1005.49 1005.32 1005.15 1004.83 1004.43 1004.21 1003.96 1003.92 1003.99 1004.14 1004.27 1004.39 1004.50 1004.51 1004.87 1005.32 1005.45 1005.49 1005.63 1005.69 1005.48 1005.29 1005.11 1004.82 1004.43 1004.19 1004.01 1004.27 1004.36 1004.88 1004.95 1005.03
1006.12 1006.19 1005.87 1005.25 1005.40 1005.80 1006.16 1006.25 1006.46 1006.40 1006.22 1005.97 1005.70 1005.40 1005.15 1004.90 1004.57 1004.32 1004.01 1003.77 1003.77 1003.86 1004.11 1004.38 1004.54 1004.60 1004.68 1005.06 1005.26 1005.43 1005.57 1005.63 1005.59 1005.25 1004.57 1004.10 1003.88 1003.75 1003.84 1003.79 1003.98 1004.39 1004.53 1004.57
Wind_Speed
5 10 11 10 10 8 10 12 14 11 9 5 7 8 6 14 14 16 16 17 19 20 20 21 21 20 19 17 17 17 14 14 11 10 10 9 9 7 7 7 6 6 5 5
8 13 14 5 8 10 12 14 13 8 8 7 7 12 8 9 13 14 16 17 18 18 19 20 21 21 20 19 18 17 16 15 13 10 8 8 7 7 7 5 7 8 7 7
13 8 5 9 12 12 16 14 12 14 14 4 10 9 6 8 7 10 14 15 18 19 20 21 22 22 20 19 19 18 17 16 15 14 9 7 5 5 6 6 4 9 9 7
10 4 9 10 12 14 16 15 8 12 12 7 5 7 3 7 7 7 11 16 17 20 20 21 22 22 22 21 18 18 17 17 14 14 11 12 10 9 8 6 8 6 8 8
5 4 6 9 7 11 14 6 7 9 14 9 13 8 4 10 6 6 3 14 18 20 21 21 23 23 23 21 19 17 17 16 15 15 14 12 13 9 7 7 7 9 10 10
12 2 6 7 10 7 4 8 8 8 10 11 1 6 11 8 7 6 6 5 17 21 22 21 21 22 21 20 19 18 18 17 16 16 17 16 14 12 8 8 8 8 8 10
6 9 2 6 12 6 9 14 8 9 11 11 7 8 11 9 11 10 10 8 13 20 22 22 21 21 19 20 20 17 18 17 17 17 16 17 16 14 12 10 9 9 9 10
4 11 5 2 7 10 7 11 10 8 9 10 4 7 4 6 8 10 6 5 9 19 20 22 22 20 21 20 19 18 17 16 17 17 17 15 15 11 11 12 9 9 9 10
3 6 6 2 3 6 5 9 9 12 10 11 14 2 10 4 10 10 10 6 4 15 17 21 21 21 20 20 20 19 16 16 17 18 15 16 15 15 13 12 12 9 9 7
4 6 4 5 5 6 8 7 9 9 10 11 7 3 6 11 12 11 11 7 5 5 13 15 17 18 17 18 18 18 18 18 17 17 16 15 16 15 14 13 13 12 10 10
6 6 2 7 1 9 6 10 7 8 7 11 9 2 10 7 8 11 10 9 5 3 7 11 13 14 15 15 15 15 15 16 15 16 16 15 16 16 15 14 14 14 13 13
5 9 11 7 2 1 6 6 11 8 8 7 9 5 7 6 7 8 9 8 6 7 4 6 11 12 13 12 13 14 14 15 15 14 14 16 15 14 15 15 15 15 14 14
3 7 9 6 12 10 9 1 6 8 9 13 10 1 4 6 5 6 8 10 8 6 4 7 6 9 9 10 9 10 11 12 12 14 14 14 16 16 17 16 16 16 15 15
4 13 10 11 10 8 9 10 9 11 11 10 8 9 2 7 5 4 7 8 9 8 8 7 7 7 6 5 6 3 6 7 10 11 12 13 14 15 15 15 15 17 16 16
8 13 9 12 11 13 14 16 15 14 14 15 15 7 9 7 5 4 3 5 6 7 10 9 8 8 9 9 8 6 5 5 8 10 11 11 11 11 11 12 13 15 16 16
6 11 8 15 17 17 18 19 19 19 18 19 16 18 15 2 2 6 4 2 5 7 6 8 7 11 14 13 5 2 8 17 11 10 12 11 11 12 13 13 14 14 15 15
11 12 9 15 9 10 13 19 18 17 18 15 15 14 9 7 7 9 8 5 5 5 4 5 7 9 9 12 12 8 8 9 16 13 7 8 8 10 12 11 14 15 16 16
14 10 11 11 5 13 3 4 2 8 8 10 14 10 6 6 2 6 6 4 5 7 6 4 6 8 10 11 11 9 12 14 13 3 2 3 2 7 11 12 13 14 14 15
8 10 8 8 11 13 12 5 5 6 9 9 9 5 6 4 5 9 5 3 4 7 6 6 5 6 6 8 7 5 4 3 4 6 7 8 6 6 7 8 10 11 13 14
6 8 8 5 8 8 8 5 4 6 10 10 8 6 4 4 9 7 6 4 6 6 7 7 6 5 3 3 4 6 7 4 1 4 4 4 5 6 7 7 7 8 11 11
7 6 11 10 9 7 7 5 3 11 6 12 10 8 7 8 8 5 4 2 2 5 7 6 6 5 4 3 2 3 4 2 2 3 5 5 5 6 6 7 6 9 10 10
7 6 7 8 8 14 7 3 7 10 9 9 9 8 9 8 8 9 9 7 5 5 6 7 7 7 7 5 4 3 1 1 2 4 5 5 6 5 6 7 7 7 8 9
6 5 7 5 4 1 6 10 7 8 8 10 12 12 10 12 10 9 10 8 7 5 6 7 6 6 6 5 4 4 1 4 5 6 7 7 6 6 5 6 6 5 5 5
5 3 7 6 8 5 7 13 13 10 12 15 16 17 15 16 15 14 12 10 9 7 7 6 7 7 5 4 3 2 1 2 4 6 8 9 9 7 7 4 4 5 4 6
7 4 7 13 15 11 10 5 11 14 14 15 13 13 16 18 18 18 15 13 11 9 8 7 7 7 6 4 3 1 2 4 6 7 8 9 9 9 9 7 5 6 8 8
9 12 10 10 11 11 13 14 15 14 15 14 15 16 17 18 19 18 16 14 11 9 9 8 9 8 7 5 4 2 3 4 5 7 9 10 11 8 9 8 8 9 9 9
Wind_Direction
223 257 243 295 349 320 303 302 310 3 12 277 262 285 278 181 203 192 196 195 194 202 193 190 193 192 195 194 190 188 198 191 186 195 199 204 211 209 220 221 215 219 218 213
231 249 268 349 286 281 280 287 296 326 33 297 315 295 278 187 202 203 195 193 198 194 187 193 193 193 197 195 194 195 200 195 200 201 210 222 219 217 219 183 210 214 212 210
261 294 353 281 274 257 268 275 310 323 322 226 312 251 132 114 179 199 206 203 195 193 190 189 193 197 193 196 197 196 198 200 204 216 200 201 219 225 204 194 203 211 206 213
265 297 260 263 267 273 273 284 310 300 304 355 44 300 156 117 120 187 207 211 200 195 198 187 191 194 197 194 198 200 199 202 200 207 205 207 213 216 210 186 217 192 214 209
95 219 224 254 307 325 290 350 286 292 283 294 175 253 126 116 46 21 182 207 214 193 197 193 193 192 198 195 192 199 200 203 209 196 220 207 225 218 206 203 197 193 205 215
280 282 278 330 307 278 300 252 231 242 270 273 246 288 295 55 7 344 345 244 205 198 195 200 194 192 196 196 195 194 197 203 202 200 205 214 216 230 216 204 181 191 186 205
180 216 214 273 281 174 220 246 254 224 221 248 100 293 302 50 3 350 328 289 208 200 187 198 194 192 196 201 196 196 195 203 202 203 206 212 216 215 213 206 211 196 200 204
263 167 184 55 11 338 351 326 297 285 268 285 113 267 48 24 17 6 356 333 195 193 188 194 195 197 192 198 201 201 194 199 201 204 207 209 212 215 214 206 220 210 207 204
210 130 134 44 344 316 16 264 2 294 250 263 276 138 256 61 31 22 26 37 166 187 192 194 196 199 197 196 196 196 197 196 199 201 204 205 205 217 209 213 208 211 218 201
53 277 172 93 245 208 289 349 257 214 267 266 245 271 282 19 5 10 21 18 28 178 197 195 198 198 203 202 201 198 198 200 199 200 200 202 199 207 214 203 207 213 205 217
320 263 187 247 280 337 265 237 213 293 294 297 270 218 55 22 0 355 7 19 353 302 212 206 196 198 201 206 205 202 202 202 204 205 200 203 200 200 207 209 206 210 204 200
24 309 287 328 62 294 296 324 272 283 233 238 304 325 63 28 10 355 3 15 12 323 254 207 192 190 192 199 210 201 200 205 203 204 205 202 204 205 202 212 211 210 211 203
17 277 287 211 172 191 256 300 303 276 280 276 283 136 65 61 7 26 19 16 20 21 77 132 178 177 179 188 197 208 208 210 211 202 201 208 201 202 207 207 213 207 210 210
287 277 281 295 352 336 298 279 266 282 284 284 236 271 123 38 26 60 47 28 21 23 57 75 116 130 135 137 134 193 251 227 211 222 211 209 215 210 215 213 210 212 204 210
267 276 277 278 283 276 278 283 280 274 273 282 286 307 304 346 347 90 61 46 52 40 47 63 68 91 108 103 84 95 49 333 264 204 218 219 226 225 224 230 222 219 216 213
239 274 286 273 274 273 272 271 266 262 263 264 264 272 281 351 207 184 161 95 79 51 56 63 89 102 100 102 102 342 64 10 283 248 221 212 212 221 227 222 223 222 227 224
281 274 258 275 287 290 262 251 252 257 256 255 255 266 329 261 224 203 180 167 128 120 100 91 105 98 85 105 125 84 94 293 306 263 263 243 212 245 235 232 234 230 225 226
263 254 271 269 269 248 340 69 314 298 276 255 248 267 279 272 220 196 195 188 164 163 149 127 96 106 98 82 92 130 158 189 205 172 251 277 6 258 244 238 240 238 236 230
251 250 247 251 240 266 276 188 246 239 299 212 240 232 249 221 260 225 211 223 208 181 172 166 139 106 92 104 110 103 98 82 45 12 16 9 342 313 298 276 249 238 235 235
203 234 248 202 271 277 52 58 333 306 254 19 320 282 262 257 252 100 114 141 165 176 185 186 175 180 148 119 126 147 142 149 74 9 13 359 349 334 329 308 273 248 234 238
180 217 231 231 259 281 62 345 297 239 22 350 355 342 309 255 301 19 341 48 247 214 191 191 220 229 192 177 230 180 168 115 36 324 327 330 344 339 348 332 297 267 247 231
238 230 213 244 265 252 41 214 298 352 318 353 354 346 323 315 306 310 328 315 296 252 224 207 219 213 187 192 210 240 239 64 303 309 299 305 315 324 332 318 299 279 264 230
247 262 330 266 27 18 304 302 331 319 314 331 325 317 313 304 298 309 300 310 308 290 243 242 241 212 212 195 216 233 129 334 318 302 294 290 280 270 275 302 318 291 247 232
182 244 254 290 256 303 297 310 307 294 298 307 298 296 298 292 292 292 292 295 300 296 291 284 266 249 236 211 238 282 16 337 306 305 295 288 281 280 292 276 279 253 228 224
319 156 253 265 266 277 275 264 321 317 305 301 303 291 290 285 287 291 290 288 279 280 277 269 271 271 255 240 259 351 14 343 328 322 310 295 279 293 298 274 265 240 245 230
227 244 252 271 317 312 299 301 305 305 302 299 299 301 291 284 282 283 282 282 287 285 279 255 254 245 246 242 261 298 337 338 317 304 298 308 306 288 280 259 246 216 260 280